Flag for U.S.A. Weather past 2 weeks in Honolulu, Hawaii, U.S.A.

81 °F

Scattered clouds.

Feels Like: 84 °F
Forecast: 72 / 80 °F
Wind: 17 mph from Northeast

Location: Honolulu International Airport

Current Time: Nov 28, 2015 at 10:30:30 AM

Latest Report: Nov 28, 2015 at 9:53 AM

Visibility: 10 mi

Pressure: 30.08 "Hg

Humidity: 67%

Dew point: 69 °F

Location of HonoluluLocation

Historic Weather in Honolulu — Graph


Honolulu temperature yesterday

Maximum temperature yesterday: 84 °F (at 11:53 AM)
Minimum temperature yesterday: 76 °F (at 12:53 AM)
Average temperature yesterday: 79 °F

Past Weeks' High & Low Weather Summary

High87 °F (Nov 15, 11:53 AM)100% (Nov 20, 1:53 AM)30.07 "Hg (Nov 20, 1:53 AM)
Low69 °F (Nov 17, 6:53 AM)45% (Nov 15, 11:53 AM)29.77 "Hg (Nov 22, 1:53 PM)
Average78 °F78%29.93 "Hg
* Reported Nov 13 8:53 AM — Nov 28 8:53 AM, Honolulu, Weather by CustomWeather, © 2015

Note: Actual official high and low records may vary slightly from our data, if they occured in-between our weather recording intervals... More about our weather records


Honolulu weather history for previous 24 hours

Time TempWeatherWind HumidityBarometerVisibility
8:53 AM
Sat, Nov 28
79 °FBroken clouds.14 mph65%30.07 "Hg10 mi
7:53 AM78 °FScattered clouds.12 mph69%30.06 "Hg10 mi
6:53 AM77 °FScattered clouds.12 mph69%30.04 "Hg10 mi
5:53 AM77 °FPassing clouds.17 mph69%30.02 "Hg10 mi
4:53 AM77 °FPassing clouds.15 mph69%30.01 "Hg10 mi
3:53 AM76 °FLight rain. Partly cloudy.7 mph77%30.02 "Hg10 mi
2:53 AM78 °FPartly cloudy.10 mph69%30.03 "Hg10 mi
1:53 AM78 °FPassing clouds.13 mph66%30.04 "Hg10 mi
12:53 AM78 °FPassing clouds.18 mph66%30.06 "Hg10 mi
11:53 PM
Fri, Nov 27
78 °FPassing clouds.10 mph69%30.06 "Hg10 mi
10:53 PM79 °FPartly cloudy.10 mph65%30.07 "Hg10 mi
9:53 PM79 °FLight rain. Partly cloudy.13 mph69%30.07 "Hg10 mi
8:53 PM79 °FPassing clouds.16 mph67%30.06 "Hg10 mi
7:53 PM79 °FPassing clouds.17 mph69%30.05 "Hg10 mi
6:53 PM79 °FPassing clouds.17 mph69%30.03 "Hg10 mi
5:53 PM80 °FPassing clouds.14 mph69%30.00 "Hg10 mi
4:53 PM82 °FScattered clouds.12 mph65%29.98 "Hg10 mi
3:53 PM82 °FScattered clouds.17 mph67%29.97 "Hg10 mi
2:53 PM84 °FBroken clouds.15 mph63%29.97 "Hg10 mi
1:53 PM84 °FBroken clouds.18 mph65%29.96 "Hg10 mi
12:53 PM83 °FBroken clouds.21 mph65%29.99 "Hg10 mi
11:53 AM84 °FBroken clouds.17 mph63%30.01 "Hg10 mi
10:53 AM82 °FBroken clouds.16 mph67%30.02 "Hg10 mi
Weather by CustomWeather, © 2015

See weather overviewHow to use our weather pages